Date,TemperatureHighF,TemperatureAvgF,TemperatureLowF,DewpointHighF,DewpointAvgF,DewpointLowF,HumidityHigh,HumidityAvg,HumidityLow,PressureMaxIn,PressureMinIn,WindSpeedMaxMPH,WindSpeedAvgMPH,GustSpeedMaxMPH,PrecipitationSumIn
2013-6-1,59.9,53.6,45.7,45.2,42.3,39.8,82,66,53,31.31,31.15,21,9,21,0.00
2013-6-2,62.4,54.5,46.9,44.9,42.7,38.5,87,66,46,31.43,31.30,15,6,15,0.00
2013-6-3,68.9,57.4,42.3,50.0,44.7,38.9,93,64,44,31.47,31.41,12,3,12,0.00
2013-6-4,66.2,56.8,44.4,50.2,44.2,38.0,86,64,48,31.43,31.24,17,6,17,0.00
2013-6-5,59.7,53.8,47.3,50.3,47.8,43.7,90,80,67,31.24,31.12,15,4,15,0.00
2013-6-6,68.4,54.5,46.6,51.1,46.9,42.0,97,78,51,31.22,31.14,13,4,13,0.00
2013-6-7,69.4,57.0,44.8,55.0,45.6,41.1,95,68,44,31.25,31.20,16,6,16,0.00
2013-6-8,62.4,54.5,47.5,49.0,46.4,44.5,91,75,58,31.24,31.09,14,6,14,0.00
2013-6-9,66.6,54.7,47.3,49.6,45.4,41.6,84,72,49,31.09,30.96,14,5,14,0.00
2013-6-10,61.2,52.5,45.0,45.6,43.5,40.0,86,72,56,31.00,30.91,11,3,11,0.00
2013-6-11,66.7,55.9,46.6,57.1,50.0,42.7,89,81,66,30.91,30.80,14,4,14,0.00
2013-6-12,68.7,59.8,54.5,57.8,54.4,50.2,95,83,55,30.79,30.68,13,4,13,0.20
2013-6-13,67.6,57.0,51.1,57.4,50.7,46.0,90,80,63,30.95,30.64,22,4,22,0.14
2013-6-14,67.1,56.6,45.1,56.6,47.7,42.1,93,73,50,30.97,30.67,17,4,17,0.04
2013-6-15,66.0,56.0,48.2,51.1,47.1,42.2,94,73,50,30.77,30.60,14,3,14,0.13
2013-6-16,69.1,58.9,50.0,50.9,48.1,44.1,85,68,48,30.95,30.77,10,2,10,0.00
2013-6-17,67.5,58.0,52.0,52.4,48.7,45.4,85,72,54,30.98,30.91,12,4,12,0.01
2013-6-18,73.8,61.6,51.6,59.5,52.8,45.0,84,74,57,30.98,30.92,8,3,8,0.00
2013-6-19,73.8,65.8,60.1,58.6,54.0,49.0,90,67,52,31.02,30.93,12,5,12,0.00
2013-6-20,71.1,61.9,54.0,62.0,55.0,46.5,91,79,64,31.00,30.77,10,4,11,0.15
2013-6-21,77.9,63.6,54.3,59.7,55.6,47.3,94,77,48,30.83,30.75,11,2,11,0.01
2013-6-22,64.0,57.1,52.0,58.4,50.7,46.4,94,80,65,30.78,30.56,13,3,13,0.19
2013-6-23,64.2,56.4,51.6,55.5,49.4,43.0,88,78,68,31.00,30.57,23,5,23,0.04
2013-6-24,61.2,54.5,48.0,46.7,42.9,40.3,76,65,53,31.28,31.00,15,6,15,0.00
2013-6-25,69.8,58.1,43.7,50.6,45.5,41.0,91,65,42,31.40,31.28,7,1,7,0.00
2013-6-26,69.8,60.2,53.8,52.9,48.4,43.4,81,66,50,31.42,31.39,14,4,14,0.01
2013-6-27,64.9,55.5,51.1,52.6,47.6,43.3,93,76,49,31.39,31.15,13,4,13,0.30
2013-6-28,68.7,60.8,54.5,61.4,56.9,52.3,96,87,72,31.15,31.02,19,4,19,0.17
2013-6-29,71.1,60.0,52.2,54.2,48.6,44.6,86,67,45,31.23,31.08,14,6,14,0.00
2013-6-30,77.9,64.4,56.5,59.8,54.8,50.2,93,73,52,31.23,31.02,10,2,10,0.01